Location: Newark
(22.3060°N, 114.2134°E)
Time: 22:40:56
(UTC+00:00)

Explorer 11/Cluster Stage 4 - All Passes

Search period start: 28 July 2021 00:00
Search period end: 07 August 2021 00:00
Orbit: 467 x 1257 km, 28.8° (Epoch: 28 July)

Date Brightness Start Highest point End Pass type
(mag) Time Alt. Az. Time Alt. Az. Time Alt. Az.
28 Jul - 00:11:57 10° SSW 00:18:53 32° SSE 00:25:56 10° E daylight
28 Jul - 01:59:49 10° WSW 02:08:06 79° SSE 02:15:53 10° ENE daylight
28 Jul - 03:49:44 10° W 03:57:45 59° NNW 04:04:42 10° ENE daylight
28 Jul - 05:40:17 10° WNW 05:47:32 50° N 05:53:28 10° ENE daylight
28 Jul - 07:30:18 10° WNW 07:36:54 75° NNE 07:42:05 10° ESE daylight
28 Jul - 09:20:19 10° W 09:25:17 34° SSW 09:29:22 10° SE daylight
29 Jul - 00:00:24 10° SSW 00:07:31 37° SSE 00:14:53 10° E daylight
29 Jul - 01:48:30 10° WSW 01:56:47 86° SSE 02:04:44 10° ENE daylight
29 Jul - 03:38:30 10° W 03:46:33 57° N 03:53:39 10° ENE daylight
29 Jul - 05:28:58 10° WNW 05:36:25 52° N 05:42:35 10° E daylight
29 Jul - 07:18:57 10° WNW 07:25:49 84° NNE 07:31:13 10° ESE daylight
29 Jul - 09:09:11 10° W 09:14:08 29° SSW 09:18:14 10° SSE daylight
29 Jul - 22:04:57 10° SSE 22:07:31 12° SE 22:10:09 10° ESE daylight
29 Jul - 23:48:57 10° SW 23:56:09 42° SSE 00:03:48 10° E daylight
30 Jul - 01:37:15 10° WSW 01:45:28 87° NNW 01:53:32 10° ENE daylight
30 Jul - 03:27:16 10° W 03:35:20 56° N 03:42:36 10° ENE daylight
30 Jul - 05:17:38 10° WNW 05:25:18 55° N 05:31:42 10° E daylight
30 Jul - 07:07:35 10° WNW 07:14:41 87° SSW 07:20:18 10° ESE daylight
30 Jul - 08:58:06 10° W 09:02:58 26° SW 09:07:03 10° SSE daylight
30 Jul - 21:52:41 10° S 21:56:12 14° SE 21:59:56 10° ESE daylight
30 Jul - 23:37:35 10° SW 23:44:48 47° SSE 23:52:37 10° E daylight
31 Jul - 01:26:02 10° WSW 01:34:10 81° NNW 01:42:20 10° ENE daylight
31 Jul - 03:16:03 10° W 03:24:08 55° N 03:31:33 10° ENE daylight
31 Jul - 05:06:18 10° WNW 05:14:08 58° N 05:20:47 10° E daylight
31 Jul - 06:56:14 10° WNW 07:03:31 78° SSW 07:09:20 10° ESE daylight
31 Jul - 08:47:04 10° W 08:51:46 22° SW 08:55:46 10° SSE daylight
31 Jul - 21:40:47 10° S 21:44:53 16° SE 21:49:21 10° ESE daylight
31 Jul - 23:26:17 10° SW 23:33:27 53° SSE 23:41:24 10° ENE daylight
01 Aug - 01:14:52 10° WSW 01:22:53 75° NNW 01:31:06 10° ENE daylight
01 Aug - 03:04:51 10° W 03:12:56 54° N 03:20:29 10° ENE daylight
01 Aug - 04:54:58 10° WNW 05:02:58 62° N 05:09:50 10° E daylight
01 Aug - 06:44:53 10° WNW 06:52:19 69° SSW 06:58:19 10° ESE daylight
01 Aug - 08:36:05 10° W 08:40:32 20° SW 08:44:24 10° S daylight
01 Aug - 21:29:05 10° S 21:33:34 19° SE 21:38:33 10° ESE visible
01 Aug - 23:15:02 10° SW 23:22:06 60° SSE 23:30:08 10° ENE daylight
02 Aug - 01:03:45 10° W 01:11:36 70° NNW 01:19:51 10° ENE daylight
02 Aug - 02:53:40 10° WNW 03:01:43 54° N 03:09:23 10° ENE daylight
02 Aug - 04:43:38 10° WNW 04:51:46 66° NNE 04:58:51 10° E daylight
02 Aug - 06:33:33 10° WNW 06:41:05 61° SSW 06:47:15 10° SE daylight
02 Aug - 08:25:11 10° WSW 08:29:17 17° SW 08:32:56 10° S daylight
02 Aug - 21:17:32 10° SSW 21:22:16 22° SE 21:27:37 10° E visible
02 Aug - 23:03:52 10° SW 23:10:48 67° SSE 23:18:50 10° ENE daylight
03 Aug - 00:52:40 10° W 01:00:21 66° NNW 01:08:35 10° ENE daylight
03 Aug - 02:42:29 10° WNW 02:50:30 54° N 02:58:17 10° ENE daylight
03 Aug - 04:32:18 10° WNW 04:40:32 72° NNE 04:47:50 10° E daylight
03 Aug - 06:22:14 10° WNW 06:29:49 55° SSW 06:36:09 10° SE daylight
03 Aug - 08:14:25 10° WSW 08:18:01 15° SW 08:21:18 10° S daylight
03 Aug - 21:06:06 10° SSW 21:10:58 25° SE 21:16:36 10° E visible
03 Aug - 22:52:45 10° WSW 22:59:30 74° SSE 23:07:30 10° ENE daylight
04 Aug - 00:41:36 10° W 00:49:06 62° N 00:57:18 10° ENE daylight
04 Aug - 02:31:19 10° WNW 02:39:16 55° N 02:47:10 10° E daylight
04 Aug - 04:20:59 10° WNW 04:29:17 77° NNE 04:36:48 10° ESE daylight
04 Aug - 06:10:57 10° W 06:18:31 48° SSW 06:24:58 10° SE daylight
04 Aug - 08:03:52 10° WSW 08:06:45 13° SW 08:09:27 10° SSW daylight
04 Aug - 20:54:46 10° SSW 20:59:41 28° SE 21:05:31 10° E visible
04 Aug - 22:41:41 10° WSW 22:48:14 82° SSE 22:56:09 10° ENE daylight
05 Aug - 00:30:35 10° W 00:37:53 59° N 00:46:01 10° ENE daylight
05 Aug - 02:20:09 10° WNW 02:28:02 56° N 02:36:02 10° E daylight
05 Aug - 04:09:40 10° WNW 04:18:00 83° NNE 04:25:42 10° ESE daylight
05 Aug - 05:59:42 10° W 06:07:11 43° SSW 06:13:42 10° SE daylight
05 Aug - 07:53:47 10° SW 07:55:28 11° SW 07:57:05 10° SSW daylight
05 Aug - 20:43:30 10° SSW 20:48:26 32° SSE 20:54:21 10° E visible
05 Aug - 22:30:40 10° WSW 22:37:01 90° NW 22:44:47 10° ENE daylight
06 Aug - 00:19:34 10° W 00:26:41 56° N 00:34:43 10° ENE daylight
06 Aug - 02:08:59 10° WNW 02:16:48 57° N 02:24:53 10° E daylight
06 Aug - 03:58:23 10° WNW 04:06:42 90° SE 04:14:33 10° ESE daylight
06 Aug - 05:48:30 10° W 05:55:50 38° SSW 06:02:23 10° SE daylight
06 Aug - 20:32:19 10° SW 20:37:12 36° SSE 20:43:10 10° E visible
06 Aug - 22:19:41 10° WSW 22:25:49 82° NNW 22:33:25 10° ENE daylight
